Wind_Speed
9 8 7 6 6 6 5 4 3 3 3 3 4 4 5 5 5 6 6 6 6 6 6 6 6 5 6 6 6 6 6 6 7 7 8 8 9 10 10 11 12 12 12
10 9 8 8 7 7 7 6 5 5 5 5 5 5 5 6 6 6 6 6 6 6 6 7 7 7 7 7 8 8 8 8 8 9 9 10 11 11 12 14 14 15 15
11 10 10 9 9 9 9 8 7 7 7 6 7 7 7 7 7 7 7 7 7 8 8 8 8 8 9 9 10 10 10 10 10 11 12 13 13 14 15 15 16 17 17
12 11 11 11 10 10 10 9 9 8 8 8 8 8 8 8 8 8 9 9 9 9 9 10 10 10 11 11 12 12 12 13 13 14 14 15 16 16 17 18 19 20 20
14 13 12 12 11 11 11 11 11 11 10 10 9 10 10 10 10 10 10 11 11 11 11 11 12 13 13 14 14 15 15 16 16 17 17 17 18 19 19 20 21 22 23
15 15 14 14 13 13 13 13 13 13 13 12 12 12 12 12 12 12 12 13 13 13 13 14 14 15 15 16 16 17 17 18 18 19 20 20 21 21 22 23 24 25 25
16 16 16 15 15 15 15 15 15 15 15 15 15 15 14 14 14 14 14 14 15 16 16 16 17 17 18 18 18 19 19 20 21 21 22 23 23 24 25 26 27 27 28
18 18 18 18 17 17 17 17 17 17 17 17 17 16 16 16 16 16 16 17 17 18 18 18 19 19 20 20 21 21 22 23 23 24 25 25 26 27 27 28 29 29 30
19 19 20 20 20 20 19 19 19 18 19 19 18 18 18 18 18 19 19 19 19 20 20 21 22 22 23 23 24 24 25 26 26 27 28 28 29 29 30 31 31 32 33
20 21 21 22 22 21 21 21 21 20 21 21 20 20 20 20 21 21 21 21 22 22 23 23 24 25 26 26 27 28 28 29 30 31 31 31 32 33 33 34 35 36 36
21 21 21 22 22 22 23 23 23 23 23 23 22 22 23 23 23 23 23 24 24 25 25 26 27 28 29 29 30 31 32 32 33 34 34 35 35 36 36 37 38 39 40
22 22 22 22 22 23 23 24 24 24 25 25 25 25 25 25 26 26 26 27 27 27 28 29 30 31 31 32 33 34 35 36 36 37 37 38 38 39 39 40 42 43 43
22 22 23 23 24 24 24 25 25 25 26 26 27 27 27 28 28 29 29 29 30 30 31 32 33 34 34 35 36 37 38 39 39 40 40 40 41 42 43 43 44 45 45
23 23 23 24 25 25 26 27 27 28 28 28 28 29 30 31 31 32 32 33 33 33 34 35 36 37 38 39 39 40 41 41 42 42 42 43 43 44 45 46 46 47 47
24 25 25 26 26 27 28 28 29 30 30 31 31 31 32 33 33 34 34 35 35 36 37 38 39 39 40 41 42 43 43 44 44 45 45 45 45 46 46 47 47 48 49
26 26 27 27 27 28 29 30 30 31 32 32 33 34 34 35 35 35 36 37 38 38 39 40 41 42 43 44 45 45 45 46 46 46 46 47 47 47 48 48 49 50 51
27 27 28 28 28 29 30 30 31 32 33 33 34 35 35 36 37 38 39 39 40 41 42 43 44 44 45 46 47 47 47 47 48 48 48 48 49 49 50 50 51 52 53
28 28 29 30 30 31 32 33 33 34 34 35 36 36 37 38 39 40 41 42 43 44 45 46 47 47 48 48 48 48 48 49 49 50 50 50 50 51 51 52 53 54 54
30 30 31 31 32 33 33 34 35 36 37 37 38 39 39 40 41 42 43 44 45 46 47 48 48 49 49 50 50 50 50 50 50 51 51 51 52 52 53 54 55 55 55
32 32 33 33 33 34 35 35 36 37 38 38 39 40 42 43 44 45 46 47 47 48 49 49 50 50 51 51 51 51 51 51 52 52 52 53 53 54 54 55 56 57 57
32 33 34 35 36 37 37 37 37 38 39 39 41 43 44 45 45 47 48 49 50 50 51 51 51 52 52 52 52 52 52 52 52 53 54 54 54 54 55 56 56 57 58
34 35 36 37 37 38 39 40 40 40 41 42 43 44 45 46 48 49 50 51 51 52 52 53 53 53 53 53 53 53 53 53 53 54 54 54 55 55 56 57 57 58 59
37 37 38 39 39 39 40 41 41 42 43 44 45 46 47 49 50 51 51 52 52 53 53 54 54 54 54 54 55 54 54 54 55 55 55 55 56 57 58 58 58 59 59
39 39 40 40 41 42 42 43 44 45 46 47 48 49 50 51 52 52 53 53 53 53 54 54 54 54 55 55 55 55 55 56 56 56 57 57 57 58 58 58 58 58 58
41 42 42 43 44 44 45 46 47 48 49 50 51 51 52 53 53 53 53 53 53 53 54 54 55 55 55 55 55 56 56 56 57 57 57 58 58 58 57 57 57 57 57
43 44 44 45 46 46 47 48 49 50 51 52 53 53 54 54 54 54 54 54 54 55 54 55 55 55 55 55 56 56 57 57 58 58 58 58 57 57 56 56 56 56 55
Wind_Direction
225 226 226 231 236 238 243 249 266 285 296 308 317 326 334 337 341 347 357 4 4 6 8 7 360 349 343 337 334 329 317 305 300 294 290 289 291 292 293 293 293 293 294
226 224 228 235 241 245 248 251 261 273 282 293 300 305 311 315 318 322 328 335 339 340 341 343 342 337 333 331 330 322 314 306 302 297 292 292 293 294 294 295 295 294 295
228 228 232 238 243 247 250 253 259 267 276 285 293 295 298 303 307 309 314 319 321 321 320 322 323 326 329 326 325 319 313 307 302 298 294 292 292 291 292 293 294 294 293
231 232 235 239 243 247 251 256 260 265 272 278 283 288 292 296 299 301 304 309 309 311 311 313 315 315 318 317 319 317 311 308 304 300 297 294 293 293 292 292 293 292 292
233 236 239 243 246 250 254 258 262 265 269 273 279 284 288 292 295 295 297 299 300 302 304 306 307 309 310 310 311 312 310 306 303 301 299 296 295 295 294 292 292 291 291
236 239 243 248 250 252 255 260 263 265 268 271 276 280 283 287 289 290 292 295 296 298 300 301 303 305 305 305 307 307 307 306 304 301 298 297 296 294 293 292 291 290 290
240 242 247 250 253 256 258 262 264 266 269 272 275 278 280 282 284 287 290 294 295 296 298 298 300 301 302 302 303 304 305 304 303 303 301 298 296 295 294 292 291 290 289
243 246 248 253 256 258 260 262 264 267 269 272 275 277 278 279 281 284 288 292 293 294 296 297 298 300 301 302 302 302 302 303 302 301 300 298 296 295 294 293 292 291 291
247 249 252 254 257 260 261 263 265 267 269 271 274 277 278 279 280 283 286 289 291 293 294 295 297 299 299 299 300 300 301 301 301 301 300 298 296 295 294 293 293 292 292
251 253 254 256 258 260 263 264 264 266 268 271 273 276 278 279 280 282 284 286 288 291 292 293 295 296 298 298 298 299 299 300 301 300 300 298 297 295 295 294 293 293 292
254 257 259 259 260 261 264 265 264 266 268 270 272 274 276 278 280 281 283 285 287 289 291 292 293 295 297 297 298 297 297 298 298 299 298 298 296 295 294 294 293 293 293
257 260 262 263 263 263 265 265 266 268 269 271 273 274 276 278 279 281 282 284 286 288 290 291 292 294 296 296 296 296 296 296 297 297 297 297 296 295 294 294 294 293 293
260 263 264 265 267 267 267 268 268 268 270 271 272 274 276 278 280 281 282 284 286 288 290 292 293 294 295 295 295 296 296 296 296 297 296 296 295 295 294 295 295 295 294
262 265 266 267 268 268 269 269 270 270 272 273 273 275 277 278 279 280 281 283 285 288 289 292 294 295 295 295 295 295 296 296 296 296 295 295 295 295 295 295 295 295 295
264 266 267 267 268 269 270 271 271 272 274 275 276 276 277 279 279 280 281 283 285 287 289 291 293 294 294 294 295 295 296 296 296 296 296 295 295 295 295 295 295 295 295
266 267 268 268 268 270 272 272 273 274 275 277 278 278 278 279 280 281 283 284 286 288 290 292 293 294 294 294 295 295 295 296 296 296 296 296 296 295 295 295 295 295 295
268 268 267 269 269 271 272 274 275 276 277 279 279 280 281 281 282 283 284 285 287 289 290 292 293 294 294 295 295 295 295 296 296 296 296 296 296 296 296 295 295 295 296
268 269 271 271 271 272 273 275 276 278 279 279 280 281 282 283 284 285 285 286 288 289 290 292 292 293 294 295 295 296 296 296 296 296 296 295 295 295 295 296 296 296 296
269 270 272 273 273 274 275 276 277 279 280 281 281 282 283 284 285 286 287 288 289 289 290 291 292 293 294 294 295 295 296 296 295 295 295 295 295 295 295 296 296 297 297
270 272 273 273 274 276 278 278 279 280 281 282 282 283 283 284 285 286 288 288 289 289 290 291 291 292 293 293 294 294 295 295 295 295 296 296 296 296 296 296 297 297 297
272 273 274 275 276 277 279 279 280 280 281 282 282 283 284 285 286 287 288 288 289 290 290 290 291 291 292 293 293 294 294 294 295 295 295 296 296 297 297 297 298 298 298
275 276 276 276 277 278 279 280 281 282 283 284 285 286 286 287 288 288 289 289 290 290 290 290 290 290 291 291 292 292 293 294 294 295 295 296 296 297 297 298 298 298 299
276 277 278 279 280 280 281 282 283 284 285 285 286 287 287 288 289 289 290 290 290 290 289 289 290 290 290 291 291 292 293 293 294 294 295 295 296 296 297 297 298 299 299
277 278 279 280 281 282 282 283 284 285 286 286 287 288 288 288 289 289 289 289 289 289 289 290 290 290 291 291 291 291 292 293 293 293 294 295 296 296 297 297 298 298 299
278 279 280 280 282 282 283 283 284 285 285 286 287 288 288 288 288 289 289 289 289 288 289 289 290 290 291 291 291 291 292 292 293 294 294 295 295 296 297 297 298 299 299
280 280 281 281 282 282 283 283 284 285 286 287 287 288 288 288 288 288 288 288 289 289 289 290 290 290 290 291 291 291 292 293 293 293 294 295 296 296 297 298 298 299 299
Height
5883 5884 5885 5886 5887 5887 5887 5887 5887 5887 5887 5886 5886 5885 5884 5883 5882 5881 5880 5879 5878 5877 5875 5874 5874 5873 5872 5870 5869 5868 5867 5866 5866 5866 5866 5866 5866 5866 5866 5865 5865 5864 5864
5881 5882 5883 5884 5885 5885 5886 5886 5886 5886 5886 5885 5885 5884 5883 5883 5882 5881 5880 5879 5878 5877 5875 5874 5873 5872 5871 5869 5868 5866 5865 5865 5864 5864 5863 5863 5863 5863 5862 5862 5861 5861 5860
5879 5880 5881 5882 5883 5883 5884 5884 5884 5884 5884 5884 5883 5883 5882 5881 5881 5880 5879 5878 5877 5876 5875 5873 5872 5871 5869 5868 5866 5865 5864 5863 5862 5861 5860 5860 5860 5859 5859 5858 5857 5856 5855
5876 5878 5879 5880 5880 5881 5882 5882 5882 5882 5882 5882 5881 5881 5880 5880 5879 5878 5877 5876 5875 5874 5873 5872 5871 5869 5868 5866 5864 5863 5861 5860 5859 5858 5857 5856 5855 5854 5854 5853 5852 5851 5850
5874 5875 5876 5877 5878 5878 5879 5879 5880 5880 5879 5879 5879 5879 5878 5877 5877 5876 5875 5874 5873 5872 5871 5870 5868 5867 5865 5863 5862 5860 5858 5856 5855 5854 5853 5852 5851 5850 5849 5847 5846 5845 5844
5870 5872 5873 5874 5875 5875 5876 5876 5877 5877 5877 5876 5876 5876 5875 5874 5874 5873 5872 5871 5870 5869 5868 5867 5865 5864 5862 5860 5858 5856 5854 5852 5851 5849 5848 5846 5845 5844 5842 5841 5840 5838 5837
5867 5868 5869 5870 5871 5872 5872 5873 5873 5873 5873 5873 5873 5872 5872 5871 5870 5870 5869 5868 5867 5866 5865 5863 5862 5860 5858 5856 5854 5852 5850 5848 5846 5844 5843 5841 5839 5838 5836 5834 5832 5830 5829
5863 5864 5865 5866 5867 5868 5868 5869 5869 5869 5869 5869 5869 5868 5868 5867 5866 5866 5865 5864 5863 5861 5860 5859 5857 5855 5854 5852 5850 5848 5845 5843 5841 5839 5837 5835 5832 5830 5828 5827 5824 5822 5820
5859 5860 5861 5862 5863 5863 5864 5864 5864 5865 5865 5864 5864 5864 5863 5863 5862 5861 5860 5859 5858 5857 5855 5854 5852 5850 5848 5846 5844 5842 5840 5837 5835 5832 5830 5827 5825 5823 5820 5818 5816 5814 5812
5854 5855 5856 5857 5858 5858 5859 5859 5859 5859 5860 5859 5859 5859 5858 5858 5857 5856 5855 5854 5853 5851 5850 5848 5846 5844 5842 5840 5838 5836 5833 5830 5827 5825 5822 5819 5816 5814 5811 5809 5807 5805 5802
5849 5850 5850 5851 5852 5853 5853 5853 5854 5854 5854 5854 5853 5853 5853 5852 5851 5850 5849 5848 5847 5845 5843 5841 5839 5837 5835 5833 5830 5828 5825 5822 5819 5816 5813 5810 5807 5804 5801 5799 5796 5794 5791
5843 5844 5845 5845 5846 5846 5847 5847 5847 5847 5847 5847 5847 5847 5846 5845 5844 5843 5842 5841 5839 5838 5836 5834 5832 5829 5827 5824 5822 5819 5816 5813 5810 5807 5804 5800 5797 5794 5790 5787 5784 5781 5778
5838 5838 5839 5839 5840 5840 5840 5840 5840 5840 5840 5840 5840 5839 5839 5838 5837 5836 5834 5833 5831 5830 5828 5825 5823 5821 5818 5815 5812 5809 5806 5803 5799 5796 5793 5789 5786 5782 5779 5775 5771 5768 5764
5832 5832 5832 5833 5833 5833 5833 5833 5833 5833 5833 5832 5832 5831 5831 5830 5828 5827 5826 5824 5823 5821 5818 5816 5814 5811 5808 5805 5802 5798 5795 5791 5788 5785 5781 5777 5774 5770 5766 5762 5758 5755 5751
5825 5825 5825 5825 5826 5826 5826 5826 5825 5825 5825 5824 5823 5823 5822 5821 5819 5818 5816 5815 5813 5811 5808 5806 5804 5801 5797 5794 5790 5787 5783 5779 5776 5772 5768 5764 5761 5757 5753 5748 5744 5741 5737
5818 5818 5818 5818 5818 5818 5818 5817 5817 5817 5816 5815 5814 5813 5812 5811 5809 5807 5806 5804 5802 5800 5798 5795 5792 5789 5785 5782 5778 5774 5770 5767 5763 5759 5755 5751 5747 5743 5739 5734 5730 5726 5722
5810 5810 5810 5810 5810 5810 5810 5809 5808 5808 5806 5806 5804 5803 5802 5800 5799 5797 5795 5793 5791 5788 5786 5783 5780 5776 5773 5769 5765 5761 5757 5753 5749 5745 5741 5736 5732 5728 5724 5720 5715 5710 5706
5802 5802 5802 5802 5802 5801 5801 5800 5799 5798 5797 5796 5794 5793 5791 5789 5788 5786 5783 5781 5779 5776 5773 5770 5767 5763 5759 5755 5751 5747 5743 5739 5734 5730 5726 5722 5717 5713 5709 5704 5699 5695 5690
5793 5793 5793 5793 5792 5792 5791 5790 5789 5788 5787 5785 5784 5782 5780 5778 5775 5773 5771 5768 5766 5763 5760 5756 5752 5748 5744 5740 5736 5732 5728 5724 5720 5715 5711 5707 5702 5697 5693 5688 5683 5678 5673
5784 5784 5784 5783 5782 5781 5781 5779 5778 5777 5776 5774 5772 5770 5768 5765 5763 5761 5758 5755 5752 5749 5745 5742 5738 5734 5730 5726 5722 5717 5713 5709 5705 5700 5696 5691 5687 5682 5677 5672 5667 5662 5657
5775 5774 5774 5773 5772 5771 5770 5768 5767 5766 5764 5762 5761 5758 5755 5753 5750 5747 5744 5741 5738 5734 5730 5727 5723 5719 5715 5711 5706 5702 5698 5694 5690 5685 5681 5676 5671 5666 5662 5656 5651 5646 5640
5765 5764 5763 5762 5761 5760 5759 5757 5756 5754 5752 5750 5748 5745 5742 5739 5736 5733 5730 5726 5723 5719 5715 5711 5707 5703 5699 5695 5691 5687 5683 5679 5674 5670 5665 5660 5656 5651 5646 5640 5635 5629 5624
5754 5753 5752 5751 5750 5748 5747 5745 5743 5741 5739 5737 5734 5731 5728 5725 5722 5718 5715 5711 5707 5703 5699 5695 5691 5688 5684 5679 5675 5671 5667 5663 5658 5654 5649 5645 5640 5635 5629 5624 5618 5613 5607
5742 5741 5740 5739 5737 5736 5734 5732 5730 5728 5726 5723 5720 5717 5713 5710 5706 5703 5699 5695 5691 5687 5683 5679 5675 5672 5668 5663 5659 5655 5651 5646 5642 5637 5633 5628 5623 5618 5612 5607 5602 5596 5590
5730 5729 5727 5726 5724 5722 5720 5718 5716 5713 5711 5708 5704 5701 5697 5694 5690 5687 5683 5679 5675 5671 5667 5663 5659 5655 5651 5647 5643 5639 5634 5630 5625 5620 5616 5611 5606 5601 5595 5590 5585 5580 5574
5717 5715 5714 5712 5710 5708 5706 5703 5701 5698 5695 5692 5688 5685 5681 5678 5674 5670 5666 5662 5658 5655 5651 5647 5643 5639 5635 5630 5626 5622 5617 5613 5608 5603 5598 5594 5589 5584 5579 5574 5569 5563 5558